DW0479 Weather Reports


time (UTC)temp
F
wind
direction
speed
knots
gust
knots
rain 1hr
in
rain 24hr
in
rain mn
in
humidity
%
barometer
mb
20260507070110 73 177 1.7 4.3 0.00 0.00 0.00 78 1015.0
20260507065547 74 177 1.7 5.2 0.00 0.00 0.00 77 1015.0
20260507064108 74 170 2.6 4.3 0.00 0.00 0.00 76 1015.2
20260507063109 74 181 1.7 5.2 0.00 0.00 0.00 76 1015.3
20260507062548 74 183 2.6 5.2 0.00 0.00 0.00 75 1015.4
20260507061103 74 174 2.6 5.2 0.00 0.00 0.00 74 1015.5
20260507060105 75 192 2.6 8.7 0.00 0.00 0.00 74 1015.6
20260507055538 75 150 3.5 6.1 0.00 0.00 0.00 74 1015.6
20260507054101 75 189 3.5 7.0 0.00 0.00 0.00 73 1015.6
20260507053101 75 177 3.5 6.1 0.00 0.00 0.00 73 1015.7
20260507052102 74 165 3.5 6.1 0.00 0.00 0.00 73 1015.9
20260507051548 74 176 1.7 5.2 0.00 0.00 0.00 74 1016.0
20260507045105 74 167 1.7 5.2 0.00 0.00 0.00 73 1016.2
20260507044050 75 177 1.7 4.3 0.00 0.00 0.00 72 1016.4
20260507043048 75 150 1.7 6.1 0.00 0.00 0.00 71 1016.4
20260507042048 76 147 1.7 6.1 0.00 0.00 0.00 70 1016.3
20260507041048 76 151 2.6 6.1 0.00 0.00 0.00 70 1016.2
20260507040047 76 154 2.6 6.1 0.00 0.00 0.00 69 1016.2
20260507035524 76 156 1.7 4.3 0.00 0.00 0.00 69 1016.3
20260507034037 77 156 2.6 5.2 0.00 0.00 0.00 68 1016.3
20260507033521 77 154 2.6 6.1 0.00 0.00 0.00 67 1016.3
20260507032036 78 147 2.6 7.8 0.00 0.00 0.00 66 1016.2
20260507031037 78 160 2.6 6.1 0.00 0.00 0.00 66 1016.1
20260507030035 78 147 2.6 6.1 0.00 0.00 0.00 66 1016.1
20260507025037 78 146 3.5 6.1 0.00 0.00 0.00 65 1016.0
20260507024037 79 148 2.6 7.8 0.00 0.00 0.00 64 1016.2
20260507023037 79 171 3.5 7.8 0.00 0.00 0.00 63 1016.2
20260507022035 79 170 4.3 11.3 0.00 0.00 0.00 63 1016.2
20260507021036 79 181 2.6 7.8 0.00 0.00 0.00 64 1016.1
20260507020039 79 176 3.5 7.8 0.00 0.00 0.00 63 1016.0
20260507015023 80 173 2.6 6.1 0.00 0.00 0.00 62 1016.0
20260507014502 80 154 2.6 7.8 0.00 0.00 0.00 59 1015.7
20260507013022 81 156 2.6 7.8 0.00 0.00 0.00 58 1015.6
20260507012024 82 129 3.5 8.7 0.00 0.00 0.00 57 1015.5
20260507011502 82 108 4.3 8.7 0.00 0.00 0.00 57 1015.4
20260507010014 83 129 3.5 7.8 0.00 0.00 0.00 56 1015.3
20260507005448 83 115 4.3 11.3 0.00 0.00 0.00 55 1015.2
20260507004011 83 119 2.6 7.8 0.00 0.00 0.00 55 1015.2
20260507003013 84 94 4.3 8.7 0.00 0.00 0.00 54 1015.0
20260507002012 85 109 3.5 8.7 0.00 0.00 0.00 53 1015.0
20260507001002 86 117 4.3 9.6 0.00 0.00 0.00 52 1014.9
20260507000002 86 109 3.5 11.3 0.00 0.00 0.00 52 1014.9
20260506235002 87 105 3.5 9.6 0.00 0.00 0.00 51 1014.7
20260506234002 89 94 3.5 10.4 0.00 0.00 0.00 47 1014.6
20260506233004 91 132 2.6 5.2 0.00 0.00 0.00 42 1014.5
20260506231948 91 103 2.6 7.0 0.00 0.00 0.00 41 1014.5
20260506230948 91 97 3.5 8.7 0.00 0.00 0.00 40 1014.6
20260506225948 92 92 3.5 8.7 0.00 0.00 0.00 40 1014.6
20260506224948 92 71 2.6 7.0 0.00 0.00 0.00 40 1014.6
20260506223949 92 100 3.5 8.7 0.00 0.00 0.00 41 1014.6
20260506222934 93 120 3.5 8.7 0.00 0.00 0.00 40 1014.6
20260506221935 93 98 2.6 7.8 0.00 0.00 0.00 41 1014.6
20260506220936 93 120 3.5 8.7 0.00 0.00 0.00 41 1014.6
20260506220906 94 111 2.6 7.0 0.00 0.00 0.00 40 1014.7
20260506214936 94 58 3.5 7.8 0.00 0.00 0.00 42 1014.7
20260506213936 94 124 3.5 7.0 0.00 0.00 0.00 40 1014.6
20260506212926 94 63 1.7 6.1 0.00 0.00 0.00 43 1014.7
20260506212849 94 171 2.6 8.7 0.00 0.00 0.00 40 1014.6
20260506210926 94 85 4.3 9.6 0.00 0.00 0.00 41 1014.6
20260506205923 94 113 3.5 8.7 0.00 0.00 0.00 40 1014.6
20260506204926 95 138 2.6 7.0 0.00 0.00 0.00 40 1014.6
20260506203916 94 135 2.6 7.0 0.00 0.00 0.00 38 1014.7
20260506202918 95 136 2.6 7.0 0.00 0.00 0.00 39 1014.8
20260506202406 95 143 1.7 4.3 0.00 0.00 0.00 40 1014.9
20260506200918 94 326 1.7 4.3 0.00 0.00 0.00 38 1014.8
20260506195916 94 5 2.6 7.8 0.00 0.00 0.00 39 1014.9
20260506194917 94 130 3.5 9.6 0.00 0.00 0.00 38 1014.9
20260506193918 94 181 1.7 6.1 0.00 0.00 0.00 39 1015.1
20260506192914 95 200 1.7 5.2 0.00 0.00 0.00 37 1015.2
20260506191913 95 135 2.6 6.1 0.00 0.00 0.00 40 1015.3
20260506190912 94 165 3.5 9.6 0.00 0.00 0.00 40 1015.5
20260506190357 94 223 2.6 7.0 0.00 0.00 0.00 40 1015.7
20260506184914 93 231 4.3 9.6 0.00 0.00 0.00 40 1015.7
20260506183913 94 193 3.5 8.7 0.00 0.00 0.00 40 1015.9
20260506182912 94 201 2.6 7.0 0.00 0.00 0.00 40 1016.0
20260506181910 92 256 3.5 7.0 0.00 0.00 0.00 40 1016.0
20260506181357 93 172 2.6 7.8 0.00 0.00 0.00 41 1016.1
20260506175910 92 242 3.5 7.8 0.00 0.00 0.00 38 1016.4
20260506174910 92 247 2.6 8.7 0.00 0.00 0.00 44 1016.4
20260506173912 91 326 2.6 6.1 0.00 0.00 0.00 47 1016.6
20260506172911 92 198 2.6 6.1 0.00 0.00 0.00 44 1016.7
20260506171910 91 192 1.7 6.1 0.00 0.00 0.00 46 1016.8
20260506170910 91 83 3.5 9.6 0.00 0.00 0.00 45 1016.7
20260506165910 90 119 3.5 7.0 0.00 0.00 0.00 47 1016.8
20260506164913 90 157 2.6 7.8 0.00 0.00 0.00 47 1016.9
20260506163901 89 194 3.5 8.7 0.00 0.00 0.00 48 1017.0
20260506162859 89 212 4.3 9.6 0.00 0.00 0.00 49 1017.0
20260506162339 89 236 3.5 8.7 0.00 0.00 0.00 49 1017.1
20260506160858 89 210 3.5 8.7 0.00 0.00 0.00 51 1017.0
20260506155858 89 173 4.3 9.6 0.00 0.00 0.00 50 1017.1
20260506154858 89 232 3.5 10.4 0.00 0.00 0.00 51 1017.0
20260506153859 87 123 4.3 9.6 0.00 0.00 0.00 54 1017.1
20260506152859 86 206 4.3 8.7 0.00 0.00 0.00 57 1017.2
20260506151856 86 200 5.2 9.6 0.00 0.00 0.00 59 1017.2
20260506150856 85 171 4.3 7.8 0.00 0.00 0.00 62 1017.2
20260506145858 85 155 3.5 8.7 0.00 0.00 0.00 62 1017.2
20260506144856 84 160 4.3 9.6 0.00 0.00 0.00 64 1017.2
20260506143856 84 151 2.6 7.8 0.00 0.00 0.00 68 1017.3
20260506142852 82 177 3.5 8.7 0.00 0.00 0.00 70 1017.4
20260506141851 82 157 3.5 7.8 0.00 0.00 0.00 73 1017.4
20260506140852 81 169 3.5 7.8 0.00 0.00 0.00 73 1017.4
20260506140336 81 139 2.6 7.8 0.00 0.00 0.00 76 1017.3
20260506134853 80 166 3.5 7.8 0.00 0.00 0.00 76 1017.3
20260506133851 79 109 4.3 8.7 0.00 0.00 0.00 78 1017.3
20260506132852 79 185 3.5 8.7 0.00 0.00 0.00 79 1017.2
20260506131852 77 160 3.5 7.8 0.00 0.00 0.00 83 1017.1
20260506130854 76 162 2.6 6.1 0.00 0.00 0.00 84 1017.0
20260506130325 75 133 2.6 6.1 0.00 0.00 0.00 86 1016.9
20260506124842 74 162 1.7 4.3 0.00 0.00 0.00 88 1016.8
20260506123842 72 132 0.9 3.5 0.00 0.00 0.00 90 1016.8
20260506123758 70 71 0.0 0.9 0.00 0.00 0.00 90 1016.8
20260506121846 69 71 0.0 0.9 0.00 0.00 0.00 90 1016.7
20260506120839 67 343 0.0 0.9 0.00 0.00 0.00 91 1016.6
20260506115836 66 343 0.0 0.0 0.00 0.00 0.00 92 1016.6
20260506114838 65 341 0.0 0.0 0.00 0.00 0.00 92 1016.5
20260506113835 64 317 0.0 0.9 0.00 0.00 0.00 93 1016.6
20260506112836 62 162 0.0 0.0 0.00 0.00 0.00 93 1016.4
20260506111829 62 203 0.0 0.0 0.00 0.00 0.00 93 1016.3
20260506110830 61 117 0.0 0.0 0.00 0.00 0.00 93 1016.2
20260506110259 61 105 0.0 0.0 0.00 0.00 0.00 93 1015.9
20260506104829 61 106 0.0 0.0 0.00 0.00 0.00 92 1016.1
20260506103830 61 106 0.0 0.0 0.00 0.00 0.00 92 1015.9
20260506102820 61 106 0.0 0.0 0.00 0.00 0.00 91 1016.0
20260506101818 61 105 0.0 0.0 0.00 0.00 0.00 91 1015.9
20260506100819 61 106 0.0 0.0 0.00 0.00 0.00 92 1015.9
20260506095818 61 105 0.0 0.0 0.00 0.00 0.00 92 1015.8
20260506094819 61 105 0.0 0.0 0.00 0.00 0.00 91 1015.8
20260506093818 61 106 0.0 0.0 0.00 0.00 0.00 91 1015.8
20260506092816 61 105 0.0 0.0 0.00 0.00 0.00 92 1015.6
20260506092252 61 106 0.0 0.0 0.00 0.00 0.00 92 1015.7
20260506090815 61 105 0.0 0.0 0.00 0.00 0.00 92 1015.5
20260506085817 61 106 0.0 0.0 0.00 0.00 0.00 91 1015.5
20260506084815 61 105 0.0 0.0 0.00 0.00 0.00 91 1015.6
20260506083813 61 106 0.0 0.0 0.00 0.00 0.00 91 1015.6
20260506082816 61 106 0.0 0.0 0.00 0.00 0.00 90 1015.7
20260506081813 61 105 0.0 0.0 0.00 0.00 0.00 91 1015.7
20260506080814 61 105 0.0 0.0 0.00 0.00 0.00 91 1015.6
20260506072805 62 105 0.0 0.0 0.00 0.00 0.00 91 1015.8
20260506071805 62 106 0.0 0.0 0.00 0.00 0.00 91 1015.8
20260506071237 62 106 0.0 0.0 0.00 0.00 0.00 90 1015.8